Find Unisat-6

NORAD ID: 40012 Int'l Des: 2014-033 Owner: GAUSS Country: I operational
LEOCIRCULARRETROGRADESSO

实时位置

正在加载3D地球...

关于 Unisat-6

正在加载描述...

即将过境

Passes for default location (London). Set your location on the main map for personalized predictions.

高度历史

Loading altitude history...

两行轨道根数

1 40012U 14033C 26106.67299772 .00001692 00000-0 18787-3 0 9994
2 40012 97.7800 260.5098 0043956 271.1218 88.4963 14.87884173637015
Epoch: Apr 16, 2026 • Age: 19 hours

当前状态

高度 602.3 km
速度 7.56 km/s
星下点 -13.65°S, 72.13°E
发射日期 Jun 19, 2014
运行时间 11.8 years
类型 other

技术详情

分类 Payload
质量 19.00 kg
干质量 19.00 kg
总质量 26.00 kg
长度 0.30 m
直径 0.30 m
跨度 0.90 m
形状 Box+4 pan
制造商 GAUSS
平台类型 Unisat
阶段状态 In Orbit
所有者/国家 GAUSS/I

Most Searched